Location: Ferma
(41.9500°N, 44.5167°E)
Time: 04:26:26
(UTC+00:00)

NOSS 2-3 (D) - Pass Details

Date: 04 June 2022
Orbit: 536 x 1674 km, 63.3° (Epoch: 02 June)

Event Time Altitude Azimuth Distance (km) Brightness Sun altitude
Rises 19:28:21 0° 316° (NW) 3,638 8.7 -22.1°
Reaches altitude 10° 19:30:48 10° 309° (NW) 2,844 7.8 -22.3°
Maximum altitude 19:37:06 39° 243° (WSW) 1,774 5.7 -22.7°
Enters shadow 19:40:28 28° 200° (SSW) 2,287 6.0 -23.0°
